Theta_e
350 342 342 341 342 340 338 336 338 337 337 340 339 338 337 337 337 337 335 335 333 332 331 330 328 327 326 326 327 327 327 327 327 327 326 325 324 324
356 351 340 341 343 344 339 337 337 337 334 340 337 337 338 337 336 336 335 336 338 337 337 336 334 333 331 329 327 327 328 328 327 326 324 322 319 317
357 355 352 341 338 342 342 339 338 337 337 337 339 338 337 337 337 336 337 338 335 336 337 336 334 331 330 330 329 329 328 327 327 324 321 318 317 318
358 356 354 352 348 335 341 340 339 339 337 337 339 339 336 336 336 337 337 335 335 337 337 337 335 333 332 330 329 327 327 327 324 322 319 320 319 320
356 356 355 352 350 349 338 342 342 339 339 339 340 339 337 337 337 336 336 335 337 339 336 334 333 333 332 332 329 328 326 324 323 321 321 324 323 321
356 359 357 354 351 350 348 338 342 344 340 342 339 341 341 341 339 339 338 338 338 337 335 337 334 333 333 333 331 330 328 326 324 323 324 325 322 316
354 353 358 358 356 350 349 344 338 342 344 341 341 340 339 342 344 340 339 338 339 339 338 338 334 333 333 334 333 332 329 328 326 325 324 317 312 312
359 356 355 359 359 357 352 347 341 339 339 345 340 341 342 340 341 342 340 341 341 339 339 339 335 336 335 335 333 334 331 329 323 322 317 311 309 306
361 360 358 357 359 359 356 353 349 346 340 337 343 341 340 341 340 342 340 339 338 337 337 338 334 334 333 332 328 325 323 322 320 317 313 311 310 310
361 361 360 359 358 359 358 356 351 349 348 345 339 339 342 341 340 340 342 339 339 337 336 335 335 334 332 330 324 323 322 321 317 315 313 311 311 311
361 361 361 361 360 359 359 356 353 351 350 348 347 342 339 339 343 344 343 340 338 337 337 337 335 334 332 329 323 322 322 320 317 315 313 311 311 311
361 360 361 361 361 361 359 357 354 352 350 347 347 344 343 342 342 342 342 339 338 337 336 334 335 334 333 329 323 322 321 319 316 315 312 312 312 312
361 360 359 360 361 362 361 358 357 355 352 348 346 345 342 344 346 343 340 340 339 337 336 334 334 334 331 323 323 321 319 318 315 312 312 311 313 312
363 362 360 359 358 359 361 361 360 357 354 349 346 344 342 340 342 343 341 342 341 340 336 334 333 331 327 322 321 320 317 315 312 311 312 312 312 312
365 364 364 362 360 358 357 358 359 360 355 353 348 347 343 343 340 340 341 341 340 338 336 335 333 331 327 322 321 320 318 316 312 311 312 313 311 310
367 366 365 364 363 360 358 356 355 351 354 355 354 351 347 342 340 340 338 339 338 338 338 336 332 327 323 321 321 320 318 313 311 310 313 311 310 310
362 359 358 359 358 358 356 354 353 352 349 353 354 353 349 343 341 340 339 337 337 336 335 335 328 326 325 320 320 317 315 314 311 313 312 310 310 309
355 354 355 357 359 359 358 358 353 350 348 349 352 353 350 345 343 340 340 337 337 335 334 332 329 326 323 321 318 312 312 312 314 311 310 311 309 308
353 355 353 355 358 358 358 355 351 350 348 347 349 350 350 348 343 343 339 337 336 335 333 331 328 325 319 318 319 316 314 312 312 310 310 311 308 305
347 349 348 347 348 349 348 348 348 347 346 345 341 339 340 339 339 338 337 336 335 332 329 329 327 325 323 320 318 316 314 315 310 310 311 310 307 306
338 339 338 338 339 338 340 341 342 342 340 339 333 328 332 333 326 334 335 334 332 330 328 327 328 328 326 321 312 312 314 315 313 310 310 309 307 305
331 332 332 332 333 336 336 338 338 338 338 338 329 332 334 334 334 332 333 330 330 328 327 327 327 325 318 313 311 311 311 312 311 311 310 308 306 302
334 333 333 334 336 335 336 337 338 337 336 335 336 336 335 334 333 332 331 329 329 329 328 321 321 316 314 314 313 312 311 312 311 310 309 309 306 304
Wind_Speed
18 18 17 14 10 8 8 6 4 2 3 13 8 23 21 19 17 18 17 13 12 13 13 13 13 13 13 13 12 12 12 12 11 9 9 8 7 8
21 18 20 21 16 12 14 12 10 8 2 5 15 15 24 23 19 18 15 12 12 12 13 14 13 12 13 14 13 14 12 11 9 9 10 9 9 9
23 22 21 21 23 19 17 18 17 14 9 8 11 17 20 20 19 17 16 17 15 15 15 14 13 13 11 11 13 14 13 9 10 9 8 9 9 11
27 25 26 23 24 25 18 23 22 19 17 14 9 22 22 20 19 20 21 18 15 14 13 21 18 14 11 10 11 11 9 8 10 9 9 11 11 12
33 33 31 29 30 30 29 24 25 25 22 20 16 21 25 23 21 20 18 15 18 18 16 14 16 12 11 11 9 9 9 7 9 10 11 13 14 18
35 33 37 37 36 35 34 36 29 26 27 25 24 21 21 21 27 26 24 22 18 18 18 17 19 14 11 13 11 12 13 11 10 13 13 15 17 18
40 40 39 40 40 40 37 37 38 33 28 30 26 23 25 17 31 33 29 26 24 21 22 20 21 18 15 13 14 17 18 14 11 12 11 14 16 14
41 43 42 39 42 42 43 42 41 40 36 29 26 21 30 34 26 33 33 26 13 22 26 21 19 18 15 15 17 14 13 11 9 11 9 8 11 10
40 40 41 38 40 43 44 45 45 43 44 39 31 34 31 39 35 32 33 32 20 20 21 24 20 18 15 12 10 11 9 11 10 8 6 4 7 6
42 43 40 39 38 42 44 47 48 46 47 43 43 38 40 36 35 36 34 31 21 21 24 15 19 18 15 13 11 9 7 9 7 7 6 4 7 9
40 40 41 41 42 41 42 42 43 49 47 49 48 46 42 37 28 31 29 29 14 19 25 18 13 19 18 18 16 13 10 9 7 7 7 6 8 13
37 39 41 44 42 43 45 40 40 46 41 39 47 48 47 44 42 35 32 30 21 12 24 22 24 20 15 21 18 16 13 11 9 9 9 8 10 13
36 38 37 39 43 43 45 46 51 40 38 40 41 45 47 43 42 42 39 38 32 18 20 25 18 17 23 7 15 13 9 8 9 10 8 7 8 8
37 37 35 35 36 42 48 54 53 46 38 33 36 37 41 45 47 47 46 43 40 36 26 23 19 28 26 12 9 13 10 6 7 7 5 5 5 5
42 40 38 38 36 40 45 51 55 55 42 36 35 40 41 49 45 47 49 42 35 33 30 26 23 25 29 18 11 11 9 9 8 7 4 7 4 7
46 47 46 45 46 45 42 36 47 42 40 41 41 40 38 34 37 41 41 38 33 35 32 31 29 31 23 18 17 13 12 8 10 7 5 4 3 3
36 37 32 30 31 32 33 36 36 33 36 39 36 38 35 35 40 42 39 35 32 27 27 33 31 27 23 22 17 14 14 12 12 9 8 4 1 2
12 20 22 23 25 24 25 27 32 34 34 32 36 38 35 36 44 44 44 42 33 29 29 33 34 25 16 14 15 14 15 14 9 12 6 3 4 6
15 18 21 20 20 22 25 25 25 27 29 28 33 36 38 40 49 53 46 30 20 30 28 28 31 24 5 4 13 20 20 17 16 9 6 8 6 6
5 7 7 6 10 13 17 22 25 25 23 15 6 8 5 7 8 15 29 26 28 24 23 26 31 29 21 14 13 17 15 22 16 11 11 10 7 5
1 4 5 7 10 13 15 20 22 22 17 9 6 2 11 21 16 9 20 22 24 23 22 25 34 32 29 21 12 12 17 22 20 12 13 12 8 8
2 3 6 9 12 15 16 14 14 14 15 18 10 9 11 14 20 23 23 22 21 22 19 27 28 28 29 24 16 14 11 12 20 16 17 12 8 6
8 10 11 11 12 14 13 11 7 7 9 10 9 9 14 16 22 27 27 23 26 23 22 27 32 34 27 19 18 17 14 15 22 21 21 15 13 14
Wind_Direction
219 218 220 223 222 226 227 214 169 141 248 225 206 209 207 211 214 219 219 225 234 240 244 254 262 270 275 280 286 289 290 295 299 303 305 306 306 311
223 221 224 225 226 227 220 221 221 198 190 246 210 202 209 212 220 225 221 224 231 243 249 252 255 268 274 277 278 283 286 289 291 296 299 303 312 314
224 225 228 228 231 228 224 217 219 224 208 225 235 211 188 202 211 212 214 221 237 244 254 248 250 256 264 274 277 281 282 288 287 294 295 306 310 314
228 224 229 230 233 234 233 226 222 220 224 228 232 203 206 211 206 200 216 232 232 240 257 247 241 243 259 272 279 279 279 286 293 288 294 300 308 311
231 230 228 227 231 232 234 234 228 225 221 222 216 201 205 211 205 216 228 239 236 239 251 236 226 238 254 263 278 282 273 273 278 278 289 296 303 308
232 235 235 231 233 231 231 234 231 229 222 218 220 212 209 223 220 216 218 226 231 233 240 250 238 241 241 252 262 264 259 259 265 272 278 288 293 291
233 234 238 237 237 239 235 236 235 229 229 226 224 221 228 216 209 217 221 228 229 231 235 244 236 241 243 250 256 257 257 256 263 269 286 307 308 294
228 234 236 240 240 238 238 241 240 229 227 223 225 219 222 226 223 215 215 219 218 222 224 233 233 240 255 260 265 255 247 242 244 253 273 328 328 315
226 230 233 233 238 239 239 242 243 243 241 228 221 220 223 224 225 220 213 213 216 212 214 220 223 239 247 258 220 195 201 207 220 230 250 322 335 327
228 229 230 232 230 234 234 235 236 238 242 238 238 236 237 238 231 230 227 217 211 199 200 202 220 236 254 235 221 213 228 219 218 227 243 274 297 300
233 233 232 233 232 230 231 229 232 235 238 238 243 244 242 235 227 217 208 186 179 192 195 210 219 256 245 232 219 225 232 216 219 232 253 285 295 286
240 241 238 236 234 231 229 226 229 233 229 229 234 235 239 239 233 227 210 190 192 192 213 197 210 218 249 236 216 216 213 218 226 234 239 248 283 288
242 245 244 244 242 239 234 231 236 238 234 228 230 232 231 227 226 221 222 216 200 210 201 192 204 218 223 181 188 196 192 203 214 216 235 279 271 288
242 247 249 249 248 243 242 242 240 240 233 225 224 225 218 221 221 223 224 217 217 217 199 193 194 211 208 177 173 178 177 194 200 225 243 222 228 285
243 247 248 248 250 251 247 246 244 238 233 230 226 228 222 222 216 217 218 213 217 210 203 209 209 218 204 192 178 187 198 217 230 230 233 213 266 316
246 248 249 250 251 250 253 254 251 239 235 235 236 237 230 219 207 207 202 201 199 207 217 222 222 209 188 198 203 202 210 195 194 236 224 209 320 296
253 252 249 251 253 252 254 254 255 254 235 237 246 242 231 214 211 203 204 196 199 192 198 209 207 206 215 204 183 208 205 218 220 235 187 233 240 226
256 245 240 241 243 248 244 245 248 248 245 246 243 243 242 221 214 204 190 182 186 189 196 187 185 183 181 189 202 194 201 206 206 181 193 214 218 285
250 256 238 234 242 245 246 244 247 255 258 253 253 250 248 241 230 210 175 152 182 189 187 179 171 172 144 173 199 216 215 208 185 188 214 219 273 304
259 262 265 287 282 273 269 265 262 262 260 266 304 23 300 358 10 155 141 167 192 161 166 173 175 181 178 189 191 209 213 200 192 192 213 234 253 260
346 286 305 294 284 281 276 270 265 259 251 238 174 198 96 107 106 109 169 178 163 161 167 176 194 203 201 191 156 163 185 203 215 216 224 230 230 223
20 275 297 284 285 282 285 288 278 266 251 219 236 229 200 179 165 161 174 162 162 162 165 186 190 184 174 175 177 183 185 202 210 220 226 230 213 211
302 296 299 299 301 296 281 263 242 211 224 258 260 200 182 148 141 145 158 162 160 166 187 160 164 171 181 188 182 191 203 212 205 211 221 231 236 246